軌道要素
Epoch 2011 Dec. 25.0 TT = JDT 2455920.5
T 2011 Dec. 16.01211 TT MPC
q 0.0055561 (2000.0) P Q
z +0.0129748 Peri. 53.62275 +0.18408854 -0.90052085
+/-0.0000477 Node 326.53456 -0.96007510 -0.07885569
e 0.9999279 Incl. 134.40945 +0.21063526 +0.42760259
From 96 observations 2011 Nov. 27-Dec. 24, mean residual 0".9.
|